Wind_Speed
30 31 31 31 30 29 28 28 26 26 26 25 25 25 25 24 24 23 22 22 22 23 23 23 23 23 23 23 22 22 21 21 21 21 21 21 21 21 21 21 21 21 21
32 32 33 33 33 32 31 31 29 28 27 27 27 27 27 26 25 24 24 24 24 24 24 25 25 25 25 25 24 24 24 24 24 23 23 23 23 23 23 23 23 23 23
32 33 34 34 34 34 33 32 32 30 29 28 28 28 28 28 28 27 26 26 26 26 26 26 27 27 28 27 27 27 26 26 26 26 26 26 26 25 25 25 25 25 24
34 34 34 34 35 36 35 33 33 32 31 30 30 30 29 29 29 29 28 28 28 28 28 28 28 29 29 30 30 29 29 29 29 29 28 28 28 27 27 27 27 27 26
35 34 34 35 35 37 36 34 34 33 33 32 32 31 31 30 31 31 30 30 30 30 29 29 30 30 31 31 31 31 31 31 31 31 31 30 30 30 30 29 29 29 29
35 35 35 36 36 37 37 36 35 35 35 34 34 34 33 33 32 32 32 32 32 32 31 31 31 31 31 32 32 32 32 33 33 32 32 32 32 32 32 31 31 31 30
36 36 36 37 37 37 37 36 36 35 35 35 35 35 35 35 34 34 34 34 34 34 34 34 33 33 33 33 34 34 34 34 35 34 34 34 34 34 34 33 33 33 32
37 37 37 37 38 38 38 37 37 37 36 36 36 36 35 35 35 35 35 35 35 36 36 36 36 36 35 35 35 35 35 35 36 36 36 36 36 35 35 34 34 34 34
38 38 38 39 39 39 39 39 39 39 39 38 37 37 37 37 37 37 37 37 36 36 37 38 38 38 38 37 37 37 37 37 37 37 37 37 37 37 37 36 36 36 36
38 38 38 39 40 39 40 40 38 38 40 39 39 39 39 38 38 39 39 39 39 38 38 38 39 39 39 40 40 39 38 38 38 39 39 39 38 39 39 38 38 38 38
38 38 38 38 38 39 41 41 40 39 39 40 40 40 41 41 41 41 40 40 40 40 40 40 40 40 39 40 40 41 40 40 41 41 41 41 41 42 42 41 41 40 40
37 38 38 39 39 39 41 42 42 42 41 42 42 42 42 42 42 42 42 41 41 41 41 42 42 43 43 42 43 43 43 43 43 44 44 44 44 44 44 44 43 43 42
37 38 39 39 39 40 42 42 43 43 42 42 43 44 44 44 44 44 44 44 44 44 44 44 44 45 45 45 46 46 46 46 46 46 47 47 46 46 46 46 46 45 44
39 39 40 40 40 40 41 41 42 43 43 43 44 45 46 45 45 45 45 46 46 46 46 46 46 46 46 47 48 48 48 48 48 48 48 48 48 48 48 47 47 46 47
39 40 41 41 41 41 41 41 43 43 43 44 44 45 46 46 46 46 46 47 48 48 48 47 48 48 48 48 49 49 49 49 49 48 48 48 49 49 49 49 49 48 48
40 41 41 42 42 43 42 42 43 44 44 44 44 44 44 45 46 46 48 48 49 49 49 49 50 50 50 50 50 49 49 49 50 50 50 50 50 50 50 50 50 50 50
41 42 42 43 43 44 44 44 44 45 45 45 45 45 45 46 47 48 49 50 50 50 50 49 49 50 49 49 50 51 51 51 51 51 51 51 51 51 51 52 52 52 52
42 43 44 44 44 45 45 45 45 45 45 46 47 47 46 47 47 48 49 50 51 51 50 50 51 51 51 50 50 51 51 52 52 52 53 52 52 52 53 53 54 53 53
44 44 45 45 45 45 46 46 46 46 47 47 48 48 49 49 48 48 49 50 50 51 51 51 51 51 51 51 51 51 51 52 53 53 53 53 53 53 54 54 54 54 53
44 45 46 46 46 47 47 48 48 48 48 48 48 49 50 50 49 50 50 50 51 51 52 51 51 51 51 51 51 51 52 52 53 53 53 53 53 53 54 54 54 54 53
45 45 46 47 47 48 48 49 49 49 49 49 50 50 50 50 50 51 51 50 50 51 51 51 51 52 52 51 52 52 53 53 53 54 54 54 53 52 52 52 53 54 54
46 46 46 46 47 47 47 48 48 49 49 50 51 51 51 51 50 51 51 51 51 51 51 51 51 52 52 52 53 54 54 53 53 53 54 53 54 53 52 51 51 53 54
47 47 46 46 46 46 47 47 48 49 49 50 50 51 51 51 50 51 51 52 52 51 51 51 51 51 52 53 53 53 53 53 52 53 54 53 53 53 52 52 53 53 54
48 47 47 47 48 48 48 49 50 51 51 50 50 51 51 51 51 51 51 51 51 51 51 52 52 52 52 52 52 52 53 53 54 54 54 54 54 54 54 54 55 55 56
49 49 49 49 49 49 50 51 51 52 51 50 50 50 50 50 50 51 51 51 50 50 51 51 50 51 51 51 51 52 53 53 53 53 54 54 54 55 55 55 56 56 57
48 49 49 49 50 50 51 51 51 51 51 50 50 50 50 50 50 50 50 50 49 49 50 50 49 50 50 51 51 52 52 53 53 53 54 55 55 55 55 55 56 57 57
Wind_Direction
241 241 240 239 238 239 239 240 243 245 243 243 243 243 244 246 249 251 253 256 257 258 260 262 264 266 267 269 270 272 273 275 277 279 280 282 284 287 288 289 290 290 293
243 244 242 240 239 240 242 243 244 247 247 245 244 245 247 247 250 252 254 256 258 260 260 262 264 265 267 268 270 272 272 273 275 277 278 279 281 284 285 286 288 288 289
245 245 244 242 242 242 245 245 245 246 248 246 246 247 248 249 251 253 256 258 259 260 262 263 264 265 266 267 269 270 272 273 274 275 278 279 280 281 282 284 285 286 287
245 246 245 243 243 242 243 244 245 246 247 247 247 249 251 252 253 254 256 259 260 262 264 265 265 266 266 268 268 269 271 272 274 275 276 277 279 280 281 282 283 284 285
245 246 245 243 242 241 242 242 243 244 246 248 248 249 251 253 255 256 257 259 261 263 265 266 266 267 267 268 269 269 270 272 273 274 275 276 276 278 279 280 281 282 283
246 245 245 244 243 242 242 242 243 244 246 248 249 250 251 253 255 257 258 259 261 262 264 266 267 267 268 268 270 270 271 272 273 274 275 274 275 276 278 278 279 280 282
247 246 245 244 244 244 243 243 243 245 247 248 250 251 253 254 256 257 258 260 261 262 264 265 265 266 268 269 270 270 271 272 272 273 274 275 276 276 276 277 278 279 280
248 246 246 246 246 245 244 244 244 246 248 249 251 253 254 255 256 257 258 261 262 263 263 264 264 265 267 269 270 271 271 271 272 272 273 275 275 276 276 276 277 278 279
248 246 246 245 246 247 246 246 246 248 249 251 251 253 255 256 257 259 260 261 262 263 264 264 265 266 267 268 269 271 272 272 272 272 273 273 274 275 276 276 277 278 279
247 246 247 246 247 249 248 247 248 249 250 250 252 254 256 257 258 259 260 261 262 263 264 265 266 267 268 268 268 269 271 272 271 271 272 273 274 275 275 276 276 277 278
248 248 248 248 250 251 249 249 250 250 251 251 252 253 255 257 259 259 261 261 262 263 264 266 268 269 270 270 269 270 271 271 271 271 271 272 273 273 273 274 275 276 277
250 249 250 251 252 252 250 251 252 252 252 252 253 254 256 258 259 260 260 261 263 264 265 266 267 269 270 271 271 271 272 272 272 272 272 272 272 272 273 273 273 274 275
251 250 251 252 253 253 252 253 255 254 254 254 254 255 257 259 259 260 261 262 264 265 266 267 268 270 270 271 271 271 272 272 272 273 272 272 272 272 273 273 273 273 273
253 251 252 252 253 253 253 254 255 256 256 256 257 257 258 259 260 261 263 264 265 266 266 267 268 269 270 271 271 271 272 272 272 272 272 272 272 272 271 272 273 273 273
254 253 252 253 253 253 253 255 255 257 258 259 259 259 259 260 261 262 263 265 266 267 267 267 269 270 270 270 270 270 271 272 272 272 272 273 273 272 272 271 271 273 274
255 253 253 253 254 254 255 256 256 258 259 259 260 261 261 261 262 264 265 266 267 268 268 268 268 269 270 270 271 271 271 272 272 272 272 272 273 273 273 272 271 272 273
256 256 254 254 255 255 255 256 257 259 260 260 261 262 263 263 264 265 266 267 268 269 269 269 268 269 270 271 271 271 271 271 272 272 272 272 273 273 273 272 272 272 272
256 257 255 255 255 256 256 256 258 260 261 262 263 263 265 266 267 268 268 268 268 269 269 269 269 270 271 271 272 272 272 272 272 272 272 272 272 272 273 273 272 272 273
257 257 256 256 256 257 258 257 259 261 262 263 264 265 267 267 268 269 270 270 270 269 269 269 270 271 271 271 271 272 272 272 272 273 272 272 271 271 272 273 273 272 273
257 257 257 257 258 259 259 259 260 262 263 264 265 266 267 268 269 270 270 270 270 270 270 269 270 271 271 271 272 272 271 272 273 273 273 272 271 272 273 273 274 273 273
256 257 258 258 259 260 260 260 261 262 263 265 266 267 267 267 268 269 269 270 270 270 270 270 270 271 271 271 272 272 272 272 272 273 273 273 272 272 274 274 274 274 274
256 256 258 258 259 260 261 262 262 263 263 265 266 267 266 266 267 268 269 269 269 270 271 271 271 272 271 272 272 272 272 272 272 272 272 273 272 272 273 274 274 274 274
256 256 257 258 260 261 262 263 264 264 265 266 266 266 267 267 267 268 268 268 269 271 272 272 272 272 272 273 273 273 273 272 272 272 272 273 273 272 273 273 274 275 275
256 257 258 259 260 262 263 265 266 266 267 267 267 267 267 268 269 269 269 269 270 271 272 272 272 272 273 273 273 273 273 273 273 273 273 274 274 274 273 273 274 275 276
256 257 258 259 261 262 263 265 266 267 268 268 267 268 269 269 270 270 270 270 271 272 272 272 272 273 273 274 274 275 274 273 273 273 273 274 275 274 273 274 274 275 276
256 257 258 260 262 263 264 265 266 266 267 267 267 267 269 270 270 271 271 271 272 272 272 272 272 273 274 275 275 275 275 274 274 274 274 274 275 275 273 273 273 274 276
Height
5813 5815 5817 5820 5822 5824 5826 5828 5830 5832 5833 5835 5836 5838 5839 5840 5841 5842 5843 5844 5844 5845 5845 5845 5846 5846 5846 5846 5846 5846 5846 5845 5845 5844 5843 5843 5842 5841 5840 5839 5838 5837 5836
5807 5809 5811 5813 5816 5818 5820 5822 5824 5826 5828 5830 5831 5833 5834 5835 5836 5837 5838 5839 5839 5840 5840 5840 5841 5841 5841 5841 5841 5841 5841 5840 5840 5839 5839 5838 5837 5836 5836 5835 5834 5833 5831
5800 5801 5804 5806 5809 5812 5814 5816 5818 5820 5822 5824 5826 5827 5828 5829 5830 5832 5833 5833 5834 5834 5835 5835 5835 5835 5835 5835 5835 5835 5835 5835 5834 5834 5833 5833 5832 5831 5830 5830 5829 5828 5826
5792 5794 5797 5799 5802 5804 5807 5809 5811 5814 5816 5818 5819 5821 5822 5823 5825 5826 5827 5828 5828 5829 5829 5829 5829 5829 5829 5829 5829 5829 5829 5829 5828 5828 5828 5827 5826 5826 5825 5824 5823 5822 5821
5785 5787 5790 5792 5794 5797 5799 5802 5805 5807 5809 5811 5813 5814 5816 5817 5818 5819 5820 5821 5822 5822 5823 5823 5823 5823 5823 5823 5823 5822 5822 5822 5822 5821 5821 5820 5820 5819 5819 5818 5817 5816 5815
5778 5780 5782 5784 5786 5789 5792 5795 5797 5800 5802 5804 5806 5807 5809 5810 5811 5812 5813 5814 5815 5815 5816 5816 5816 5816 5816 5816 5815 5815 5815 5815 5815 5814 5814 5813 5813 5812 5812 5811 5810 5809 5808
5770 5773 5775 5777 5779 5782 5784 5787 5790 5792 5795 5797 5798 5800 5801 5802 5804 5805 5806 5806 5807 5808 5808 5809 5809 5809 5809 5808 5808 5808 5808 5807 5807 5806 5806 5805 5805 5805 5804 5804 5803 5802 5801
5762 5765 5767 5769 5772 5774 5777 5780 5782 5785 5787 5789 5791 5792 5793 5795 5796 5797 5798 5799 5799 5800 5800 5800 5801 5801 5801 5801 5800 5800 5800 5799 5799 5798 5798 5798 5797 5797 5797 5796 5795 5794 5794
5754 5757 5759 5761 5764 5766 5769 5771 5774 5776 5778 5781 5782 5784 5786 5787 5788 5789 5790 5790 5791 5791 5791 5791 5792 5792 5792 5792 5792 5792 5791 5791 5790 5790 5789 5789 5789 5788 5788 5788 5787 5786 5785
5746 5748 5751 5753 5756 5758 5760 5763 5766 5768 5770 5772 5773 5775 5777 5778 5779 5781 5781 5781 5781 5782 5782 5782 5782 5782 5783 5783 5783 5782 5782 5782 5781 5781 5780 5780 5779 5779 5779 5779 5778 5777 5776
5737 5740 5742 5745 5747 5750 5752 5755 5757 5759 5761 5763 5764 5766 5767 5768 5769 5771 5772 5772 5772 5772 5773 5773 5773 5773 5773 5773 5773 5773 5772 5772 5771 5771 5771 5770 5770 5769 5769 5768 5768 5767 5766
5729 5731 5734 5736 5739 5741 5744 5746 5748 5750 5751 5753 5755 5756 5757 5759 5760 5760 5761 5762 5762 5763 5763 5763 5763 5763 5762 5762 5762 5762 5761 5761 5761 5760 5760 5759 5759 5758 5757 5757 5757 5756 5755
5721 5723 5725 5727 5730 5732 5734 5736 5738 5740 5742 5743 5745 5746 5747 5748 5749 5750 5750 5751 5751 5752 5752 5752 5752 5751 5751 5750 5750 5750 5749 5749 5748 5748 5747 5747 5747 5746 5746 5745 5744 5744 5744
5712 5714 5716 5718 5720 5722 5725 5727 5728 5730 5732 5733 5735 5736 5737 5737 5738 5739 5739 5740 5740 5741 5741 5741 5740 5739 5739 5738 5737 5737 5737 5736 5735 5735 5734 5734 5733 5733 5733 5733 5732 5732 5732
5703 5705 5707 5709 5711 5713 5715 5717 5719 5720 5722 5723 5724 5725 5726 5726 5727 5727 5727 5727 5728 5728 5729 5728 5727 5726 5726 5725 5724 5724 5724 5723 5722 5721 5721 5720 5720 5720 5720 5719 5719 5719 5718
5693 5695 5697 5699 5701 5703 5704 5706 5708 5710 5711 5712 5713 5713 5714 5714 5715 5715 5715 5715 5714 5714 5715 5716 5714 5713 5712 5712 5711 5710 5710 5709 5709 5708 5708 5707 5707 5706 5706 5705 5705 5705 5704
5683 5685 5687 5688 5690 5692 5694 5696 5697 5699 5700 5701 5701 5702 5703 5702 5703 5703 5702 5702 5701 5700 5701 5702 5700 5699 5698 5698 5697 5696 5696 5695 5695 5695 5694 5694 5693 5693 5692 5692 5691 5690 5690
5672 5674 5676 5678 5680 5681 5683 5685 5686 5687 5688 5689 5689 5690 5690 5690 5690 5689 5689 5688 5688 5687 5686 5687 5687 5686 5685 5685 5684 5683 5682 5681 5681 5681 5680 5679 5679 5678 5678 5677 5676 5676 5675
5661 5663 5665 5667 5668 5670 5671 5673 5674 5675 5676 5677 5677 5677 5677 5677 5676 5676 5675 5675 5674 5673 5673 5673 5673 5673 5672 5671 5670 5670 5669 5668 5667 5667 5666 5665 5665 5664 5663 5662 5662 5661 5661
5650 5651 5653 5655 5656 5658 5659 5661 5662 5663 5663 5664 5664 5664 5664 5663 5663 5662 5662 5661 5660 5660 5659 5659 5659 5659 5658 5657 5657 5656 5655 5654 5653 5652 5651 5651 5650 5649 5649 5648 5648 5647 5646
5638 5640 5641 5643 5644 5646 5647 5648 5649 5650 5651 5651 5651 5651 5650 5650 5649 5649 5648 5647 5647 5646 5646 5645 5645 5645 5645 5643 5643 5642 5641 5640 5639 5638 5637 5636 5636 5635 5635 5634 5633 5632 5631
5626 5628 5629 5631 5632 5633 5634 5635 5636 5637 5637 5637 5637 5637 5636 5636 5635 5635 5634 5634 5633 5632 5632 5631 5631 5631 5630 5629 5628 5627 5626 5625 5625 5625 5622 5622 5621 5621 5620 5620 5619 5618 5617
5614 5616 5617 5618 5619 5621 5621 5622 5623 5623 5623 5623 5623 5623 5622 5622 5621 5621 5621 5620 5620 5619 5618 5617 5617 5616 5615 5615 5613 5612 5611 5610 5610 5609 5608 5608 5606 5606 5606 5606 5605 5604 5602
5601 5603 5604 5606 5607 5608 5609 5609 5609 5609 5610 5610 5609 5609 5609 5608 5607 5607 5607 5606 5606 5606 5605 5603 5603 5602 5600 5599 5598 5597 5596 5595 5595 5594 5593 5593 5592 5591 5591 5590 5589 5588 5587
5588 5590 5591 5593 5594 5595 5595 5595 5595 5595 5596 5596 5595 5595 5595 5595 5594 5593 5592 5592 5592 5592 5590 5589 5588 5587 5586 5585 5583 5582 5581 5580 5580 5580 5578 5578 5577 5576 5576 5575 5574 5572 5571
5575 5576 5578 5579 5580 5581 5581 5581 5581 5581 5582 5582 5582 5581 5581 5581 5580 5579 5578 5578 5578 5578 5577 5576 5575 5573 5572 5571 5569 5567 5566 5565 5564 5564 5563 5562 5561 5559 5560 5560 5558 5556 5554